Location: Campillo
(40.8621°N, 4.2488°W)
Time: 19:06:49
(UTC+00:00)

Cosmos 2154 Rocket - Pass Details

Date: 25 September 2021
Orbit: 965 x 997 km, 82.9° (Epoch: 21 October)

Event Time Altitude Azimuth Distance (km) Brightness Sun altitude
Rises 05:34:27 0° 1° (N) 3,706 7.1 -7.1°
Reaches altitude 10° 05:37:19 10° 12° (NNE) 2,749 6.6 -6.5°
Maximum altitude 05:42:52 32° 74° (ENE) 1,623 6.2 -5.5°
Drops below altitude 10° 05:48:20 10° 135° (SE) 2,714 7.0 -4.5°
Sets 05:51:07 0° 146° (SE) 3,653 7.5 -3.9°
